ANZ129 NZAA-YMML

Flight info

Callsign ANZ129
Flight time N/A
Altitude 36000
Route AKELA2QPEBLU/05R PEBLU N759 GEMAC Q302 RIMSU DCT BOYSE BOYSE9A
Aircraft B77W/H-SDE1E2E3FGHIJ2J3J4J5M1RWXY/LB2

Departure

Time N/A
Airport Auckland International Airport (NZAA)

Arrival

Time 2026-05-01 13:37
Airport Melbourne Airport (YMML)
Time Latitude Longitude Altitude Speed Heading
2026-05-01 11:24 -38.50297 165.19093 36591 ft 510 kts 264°
2026-05-01 11:25 -38.50899 165.05547 36565 ft 509 kts 264°
2026-05-01 11:25 -38.51484 164.91999 36589 ft 509 kts 264°
2026-05-01 11:26 -38.52055 164.78440 36588 ft 510 kts 264°
2026-05-01 11:27 -38.52427 164.69396 36584 ft 510 kts 264°
2026-05-01 11:27 -38.52791 164.60356 36590 ft 510 kts 264°
2026-05-01 11:28 -38.53149 164.51311 36583 ft 510 kts 264°
2026-05-01 11:28 -38.53497 164.42330 36577 ft 510 kts 264°
2026-05-01 11:29 -38.54011 164.28756 36587 ft 509 kts 265°
2026-05-01 11:30 -38.54508 164.15197 36580 ft 509 kts 265°
2026-05-01 11:30 -38.54830 164.06160 36586 ft 509 kts 265°
2026-05-01 11:31 -38.55146 163.97126 36580 ft 509 kts 265°
2026-05-01 11:31 -38.55455 163.88093 36584 ft 509 kts 265°
2026-05-01 11:32 -38.55756 163.79054 36581 ft 509 kts 265°
2026-05-01 11:32 -38.56051 163.70016 36582 ft 509 kts 265°
2026-05-01 11:33 -38.56339 163.60981 36574 ft 509 kts 265°
2026-05-01 11:33 -38.56620 163.51942 36583 ft 509 kts 265°
2026-05-01 11:34 -38.56894 163.42906 36582 ft 509 kts 265°
2026-05-01 11:34 -38.57160 163.33876 36583 ft 509 kts 265°
2026-05-01 11:35 -38.57420 163.24837 36576 ft 509 kts 265°
2026-05-01 11:35 -38.57672 163.15858 36577 ft 509 kts 265°
2026-05-01 11:36 -38.57919 163.06821 36579 ft 509 kts 265°
2026-05-01 11:36 -38.58158 162.97791 36578 ft 508 kts 265°
2026-05-01 11:37 -38.58387 162.88752 36577 ft 508 kts 265°
2026-05-01 11:37 -38.58608 162.79732 36586 ft 508 kts 265°
2026-05-01 11:38 -38.58824 162.70705 36582 ft 508 kts 265°
2026-05-01 11:38 -38.59033 162.61672 36582 ft 508 kts 265°
2026-05-01 11:39 -38.59235 162.52644 36581 ft 508 kts 265°
2026-05-01 11:39 -38.59430 162.43612 36577 ft 508 kts 265°
2026-05-01 11:40 -38.59618 162.34574 36576 ft 508 kts 265°
2026-05-01 11:40 -38.59799 162.25545 36568 ft 508 kts 266°
2026-05-01 11:41 -38.59973 162.16519 36574 ft 508 kts 266°
2026-05-01 11:41 -38.60140 162.07494 36578 ft 508 kts 266°
2026-05-01 11:42 -38.60300 161.98461 36576 ft 508 kts 266°
2026-05-01 11:42 -38.60453 161.89484 36564 ft 508 kts 266°
2026-05-01 11:43 -38.60599 161.80453 36571 ft 507 kts 266°
2026-05-01 11:43 -38.60738 161.71449 36570 ft 507 kts 266°
2026-05-01 11:44 -38.60934 161.57932 36571 ft 506 kts 266°
2026-05-01 11:44 -38.61056 161.48934 36567 ft 506 kts 266°
2026-05-01 11:45 -38.61171 161.39938 36570 ft 506 kts 266°
2026-05-01 11:45 -38.61279 161.30946 36577 ft 506 kts 266°
2026-05-01 11:46 -38.61379 161.22002 36565 ft 506 kts 266°
2026-05-01 11:46 -38.61473 161.13009 36567 ft 506 kts 266°
2026-05-01 11:47 -38.61560 161.04017 36570 ft 506 kts 266°
2026-05-01 11:47 -38.61641 160.95031 36565 ft 506 kts 266°
2026-05-01 11:48 -38.61714 160.86042 36556 ft 505 kts 266°
2026-05-01 11:48 -38.61781 160.77052 36563 ft 505 kts 266°
2026-05-01 11:49 -38.61840 160.68071 36566 ft 505 kts 266°
2026-05-01 11:49 -38.61893 160.59092 36567 ft 505 kts 266°
2026-05-01 11:50 -38.61939 160.50125 36556 ft 504 kts 266°
2026-05-01 11:50 -38.61977 160.41235 36564 ft 503 kts 266°
2026-05-01 11:51 -38.62010 160.32300 36563 ft 502 kts 266°
2026-05-01 11:51 -38.62035 160.23359 36563 ft 502 kts 267°
2026-05-01 11:52 -38.62054 160.14430 36562 ft 502 kts 267°
2026-05-01 11:52 -38.62065 160.05509 36561 ft 502 kts 267°
2026-05-01 11:53 -38.62070 159.96594 36561 ft 501 kts 267°
2026-05-01 11:53 -38.62069 159.87675 36558 ft 502 kts 267°
2026-05-01 11:54 -38.62060 159.78811 36554 ft 501 kts 267°
2026-05-01 11:54 -38.62045 159.69850 36556 ft 501 kts 267°
2026-05-01 11:55 -38.62023 159.60948 36552 ft 500 kts 267°
2026-05-01 11:55 -38.61994 159.52105 36542 ft 500 kts 268°
2026-05-01 11:56 -38.61958 159.43218 36550 ft 499 kts 268°
2026-05-01 11:56 -38.61916 159.34353 36551 ft 498 kts 268°
2026-05-01 11:57 -38.61876 159.26994 36547 ft 497 kts 268°
2026-05-01 11:57 -38.61813 159.16668 36546 ft 496 kts 268°
2026-05-01 11:58 -38.61751 159.07846 36547 ft 496 kts 268°
2026-05-01 11:59 -38.61658 158.96125 36547 ft 495 kts 268°
2026-05-01 11:59 -38.61582 158.87315 36547 ft 495 kts 268°
2026-05-01 12:00 -38.61454 158.74123 36551 ft 494 kts 268°
2026-05-01 12:01 -38.61312 158.61003 36546 ft 494 kts 268°
2026-05-01 12:01 -38.61209 158.52211 36537 ft 494 kts 268°
2026-05-01 12:02 -38.61099 158.43427 36535 ft 494 kts 268°
2026-05-01 12:02 -38.60983 158.34642 36536 ft 494 kts 269°
2026-05-01 12:03 -38.60860 158.25852 36535 ft 494 kts 269°
2026-05-01 12:03 -38.60731 158.17057 36533 ft 494 kts 269°
2026-05-01 12:04 -38.60595 158.08286 36536 ft 493 kts 269°
2026-05-01 12:04 -38.60452 157.99512 36534 ft 493 kts 269°
2026-05-01 12:05 -38.60304 157.90748 36530 ft 493 kts 269°
2026-05-01 12:05 -38.60069 157.77623 36532 ft 492 kts 269°
2026-05-01 12:06 -38.59905 157.68934 36531 ft 492 kts 269°
2026-05-01 12:06 -38.59735 157.60188 36526 ft 492 kts 269°
2026-05-01 12:07 -38.59558 157.51449 36520 ft 492 kts 269°
2026-05-01 12:07 -38.59371 157.42711 36523 ft 491 kts 269°
2026-05-01 12:08 -38.59177 157.33986 36523 ft 491 kts 269°
2026-05-01 12:08 -38.58978 157.25274 36517 ft 491 kts 270°
2026-05-01 12:09 -38.58773 157.16561 36518 ft 490 kts 270°
2026-05-01 12:09 -38.58563 157.07915 36512 ft 490 kts 270°
2026-05-01 12:10 -38.58235 156.94878 36515 ft 489 kts 270°
2026-05-01 12:11 -38.57893 156.81868 36508 ft 488 kts 270°
2026-05-01 12:11 -38.57657 156.73215 36510 ft 487 kts 270°
2026-05-01 12:12 -38.57415 156.64567 36510 ft 487 kts 270°
2026-05-01 12:12 -38.57167 156.55926 36503 ft 487 kts 270°
2026-05-01 12:13 -38.56913 156.47283 36507 ft 486 kts 270°
2026-05-01 12:13 -38.56653 156.38662 36508 ft 485 kts 270°
2026-05-01 12:14 -38.56386 156.30044 36493 ft 485 kts 271°
2026-05-01 12:14 -38.56114 156.21427 36499 ft 485 kts 271°
2026-05-01 12:15 -38.55837 156.12879 36490 ft 484 kts 271°
2026-05-01 12:15 -38.55553 156.04295 36493 ft 483 kts 270°
2026-05-01 12:16 -38.55262 155.95721 36489 ft 483 kts 271°
2026-05-01 12:16 -38.54966 155.87143 36487 ft 483 kts 271°
2026-05-01 12:17 -38.54664 155.78579 36498 ft 482 kts 271°
2026-05-01 12:17 -38.54356 155.70032 36482 ft 481 kts 271°
2026-05-01 12:18 -38.54042 155.61505 36482 ft 480 kts 271°
2026-05-01 12:18 -38.53723 155.52995 36471 ft 480 kts 272°
2026-05-01 12:19 -38.53398 155.44485 36478 ft 480 kts 271°
2026-05-01 12:19 -38.53066 155.35979 36476 ft 480 kts 271°
2026-05-01 12:20 -38.52729 155.27463 36466 ft 480 kts 272°
2026-05-01 12:20 -38.52384 155.18939 36473 ft 481 kts 272°
2026-05-01 12:21 -38.52034 155.10419 36475 ft 481 kts 272°
2026-05-01 12:21 -38.51677 155.01890 36470 ft 481 kts 272°
2026-05-01 12:22 -38.51314 154.93371 36468 ft 480 kts 272°
2026-05-01 12:22 -38.50946 154.84871 36461 ft 479 kts 272°
2026-05-01 12:23 -38.50572 154.76387 36463 ft 478 kts 272°
2026-05-01 12:23 -38.50195 154.67974 36459 ft 478 kts 272°
2026-05-01 12:24 -38.49810 154.59494 36467 ft 478 kts 273°
2026-05-01 12:24 -38.49418 154.51023 36457 ft 478 kts 273°
2026-05-01 12:25 -38.48819 154.38318 36467 ft 478 kts 273°
2026-05-01 12:26 -38.48413 154.29857 36460 ft 477 kts 273°
2026-05-01 12:26 -38.47792 154.17170 36452 ft 477 kts 273°
2026-05-01 12:27 -38.47158 154.04483 36438 ft 477 kts 274°
2026-05-01 12:28 -38.46510 153.91801 36440 ft 478 kts 274°
2026-05-01 12:29 -38.45848 153.79124 36442 ft 477 kts 274°
2026-05-01 12:29 -38.45175 153.66498 36445 ft 477 kts 274°
2026-05-01 12:30 -38.44487 153.53840 36444 ft 477 kts 274°
2026-05-01 12:31 -38.44021 153.45413 36442 ft 476 kts 274°
2026-05-01 12:31 -38.43550 153.36990 36428 ft 475 kts 274°
2026-05-01 12:32 -38.43072 153.28578 36429 ft 475 kts 274°
2026-05-01 12:32 -38.42346 153.15962 36420 ft 476 kts 275°
2026-05-01 12:33 -38.41853 153.07544 36422 ft 476 kts 275°
2026-05-01 12:33 -38.41354 152.99121 36414 ft 476 kts 275°
2026-05-01 12:34 -38.40849 152.90704 36418 ft 476 kts 275°
2026-05-01 12:34 -38.40338 152.82290 36421 ft 476 kts 275°
2026-05-01 12:35 -38.39822 152.73881 36416 ft 476 kts 275°
2026-05-01 12:35 -38.39303 152.65531 36412 ft 476 kts 275°
2026-05-01 12:36 -38.38774 152.57119 36407 ft 476 kts 275°
2026-05-01 12:36 -38.38240 152.48708 36402 ft 476 kts 275°
2026-05-01 12:37 -38.37699 152.40297 36399 ft 476 kts 276°
2026-05-01 12:37 -38.37152 152.31896 36397 ft 475 kts 276°
2026-05-01 12:38 -38.36602 152.23530 36392 ft 474 kts 276°
2026-05-01 12:38 -38.36046 152.15158 36395 ft 474 kts 276°
2026-05-01 12:39 -38.35484 152.06800 36399 ft 474 kts 276°
2026-05-01 12:39 -38.34916 151.98433 36399 ft 474 kts 276°
2026-05-01 12:40 -38.34342 151.90066 36398 ft 475 kts 276°
2026-05-01 12:40 -38.33761 151.81691 36396 ft 475 kts 276°
2026-05-01 12:41 -38.33174 151.73320 36387 ft 474 kts 276°
2026-05-01 12:41 -38.32585 151.65005 36381 ft 474 kts 276°
2026-05-01 12:42 -38.31984 151.56591 36380 ft 474 kts 277°
2026-05-01 12:42 -38.31384 151.48284 36380 ft 473 kts 277°
2026-05-01 12:43 -38.30774 151.39934 36370 ft 473 kts 277°
2026-05-01 12:43 -38.30160 151.31587 36380 ft 473 kts 277°
2026-05-01 12:44 -38.29539 151.23247 36368 ft 473 kts 277°
2026-05-01 12:45 -38.28279 151.06549 36357 ft 474 kts 277°
2026-05-01 12:45 -38.27640 150.98208 36349 ft 474 kts 277°
2026-05-01 12:46 -38.26994 150.89849 36353 ft 474 kts 277°
2026-05-01 12:46 -38.26342 150.81492 36350 ft 474 kts 278°
2026-05-01 12:47 -38.25795 150.74546 36344 ft 475 kts 278°
2026-05-01 12:47 -38.25133 150.66200 36340 ft 475 kts 278°
2026-05-01 12:48 -38.24465 150.57848 36334 ft 475 kts 278°
2026-05-01 12:48 -38.23681 150.48147 36330 ft 474 kts 278°
2026-05-01 12:49 -38.23111 150.41151 36330 ft 474 kts 278°
2026-05-01 12:49 -38.22424 150.32868 36329 ft 474 kts 279°
2026-05-01 12:50 -38.21321 150.24627 36330 ft 472 kts 282°
2026-05-01 12:50 -38.20102 150.16428 36321 ft 472 kts 282°
2026-05-01 12:51 -38.18887 150.08228 36320 ft 472 kts 282°
2026-05-01 12:52 -38.17075 149.95904 36314 ft 474 kts 282°
2026-05-01 12:52 -38.15256 149.83563 36311 ft 474 kts 282°
2026-05-01 12:53 -38.13427 149.71250 36294 ft 472 kts 283°
2026-05-01 12:54 -38.12200 149.63050 36307 ft 472 kts 283°
2026-05-01 12:54 -38.10344 149.50730 36295 ft 475 kts 282°
2026-05-01 12:55 -38.08465 149.38329 36280 ft 478 kts 282°
2026-05-01 12:56 -38.07202 149.30053 36285 ft 477 kts 282°
2026-05-01 12:56 -38.05945 149.21853 36270 ft 476 kts 282°
2026-05-01 12:57 -38.04676 149.13616 36267 ft 476 kts 282°
2026-05-01 12:57 -38.02763 149.01228 36268 ft 474 kts 282°
2026-05-01 12:58 -38.01486 148.93058 36269 ft 477 kts 282°
2026-05-01 12:59 -37.99532 148.80653 36264 ft 479 kts 282°
2026-05-01 12:59 -37.97566 148.68208 36261 ft 480 kts 282°
2026-05-01 13:00 -37.95587 148.55768 36257 ft 479 kts 282°
2026-05-01 13:01 -37.93601 148.43381 36257 ft 478 kts 282°
2026-05-01 13:02 -37.91609 148.31043 36252 ft 476 kts 282°
2026-05-01 13:07 -37.77769 147.47588 32554 ft 450 kts 283°
2026-05-01 13:07 -37.77113 147.43723 32156 ft 450 kts 283°
2026-05-01 13:07 -37.76453 147.39851 31757 ft 451 kts 283°
2026-05-01 13:08 -37.75794 147.35979 31369 ft 450 kts 283°
2026-05-01 13:08 -37.75133 147.32113 30989 ft 450 kts 283°
2026-05-01 13:08 -37.74472 147.28253 30598 ft 449 kts 283°
2026-05-01 13:08 -37.73811 147.24403 30213 ft 448 kts 283°
2026-05-01 13:09 -37.73150 147.20559 29772 ft 446 kts 283°
2026-05-01 13:09 -37.72490 147.16733 29321 ft 444 kts 283°
2026-05-01 13:09 -37.71835 147.12938 28903 ft 440 kts 284°
2026-05-01 13:09 -37.71196 147.09242 28484 ft 432 kts 284°
2026-05-01 13:10 -37.70559 147.05562 28096 ft 425 kts 284°
2026-05-01 13:10 -37.69932 147.01952 27710 ft 418 kts 284°
2026-05-01 13:10 -37.69313 146.98394 27325 ft 411 kts 285°
2026-05-01 13:10 -37.68704 146.94891 26950 ft 407 kts 285°
2026-05-01 13:11 -37.68098 146.91426 26587 ft 403 kts 285°
2026-05-01 13:11 -37.67495 146.87986 26211 ft 399 kts 285°
2026-05-01 13:11 -37.66897 146.84580 25852 ft 396 kts 285°
2026-05-01 13:11 -37.66303 146.81203 25516 ft 393 kts 285°
2026-05-01 13:12 -37.65712 146.77845 25136 ft 390 kts 285°
2026-05-01 13:12 -37.65123 146.74511 24796 ft 388 kts 285°
2026-05-01 13:12 -37.64540 146.71205 24454 ft 385 kts 286°
2026-05-01 13:12 -37.63960 146.67917 24123 ft 383 kts 286°
2026-05-01 13:13 -37.63379 146.64645 23772 ft 382 kts 286°
2026-05-01 13:13 -37.62798 146.61376 23362 ft 381 kts 286°
2026-05-01 13:13 -37.62220 146.58123 22974 ft 379 kts 286°
2026-05-01 13:13 -37.61642 146.54873 22585 ft 379 kts 286°
2026-05-01 13:14 -37.61063 146.51637 22198 ft 377 kts 286°
2026-05-01 13:14 -37.60479 146.48464 21805 ft 375 kts 288°
2026-05-01 13:14 -37.59679 146.45360 21440 ft 371 kts 294°
2026-05-01 13:14 -37.58630 146.42409 21065 ft 368 kts 298°
2026-05-01 13:15 -37.57539 146.39499 20697 ft 367 kts 298°
2026-05-01 13:15 -37.56449 146.36595 20331 ft 366 kts 298°
2026-05-01 13:15 -37.55365 146.33702 19962 ft 365 kts 297°
2026-05-01 13:15 -37.54285 146.30812 19629 ft 364 kts 297°
2026-05-01 13:16 -37.53207 146.27928 19257 ft 363 kts 297°
2026-05-01 13:16 -37.52136 146.25056 18921 ft 361 kts 297°
2026-05-01 13:16 -37.51069 146.22196 18578 ft 360 kts 297°
2026-05-01 13:17 -37.47890 146.13669 17402 ft 355 kts 297°
2026-05-01 13:17 -37.46845 146.10872 17029 ft 351 kts 297°
2026-05-01 13:18 -37.44870 146.05582 16274 ft 343 kts 297°
2026-05-01 13:18 -37.43886 146.02956 15929 ft 340 kts 297°
2026-05-01 13:18 -37.42882 146.00277 15571 ft 337 kts 297°
2026-05-01 13:18 -37.41885 145.97612 15189 ft 335 kts 297°
2026-05-01 13:19 -37.40892 145.94973 14825 ft 333 kts 297°
2026-05-01 13:19 -37.39906 145.92354 14529 ft 330 kts 298°
2026-05-01 13:19 -37.37947 145.87153 14056 ft 331 kts 298°
2026-05-01 13:20 -37.36968 145.84554 13814 ft 334 kts 297°
2026-05-01 13:20 -37.35975 145.81918 13556 ft 333 kts 298°
2026-05-01 13:20 -37.34985 145.79293 13303 ft 332 kts 298°
2026-05-01 13:21 -37.33452 145.75230 12909 ft 329 kts 298°
2026-05-01 13:21 -37.32914 145.73804 12771 ft 328 kts 298°
2026-05-01 13:21 -37.31936 145.71221 12516 ft 325 kts 297°
2026-05-01 13:21 -37.31277 145.68539 12223 ft 324 kts 278°
2026-05-01 13:22 -37.31485 145.65732 11963 ft 324 kts 258°
2026-05-01 13:22 -37.32375 145.63145 11716 ft 324 kts 241°
2026-05-01 13:22 -37.33667 145.60861 11478 ft 318 kts 237°
2026-05-01 13:22 -37.34983 145.58649 11230 ft 313 kts 237°
2026-05-01 13:23 -37.36275 145.56474 10973 ft 308 kts 237°
2026-05-01 13:23 -37.37541 145.54323 10730 ft 304 kts 237°
2026-05-01 13:23 -37.38785 145.52191 10499 ft 301 kts 238°
2026-05-01 13:23 -37.40012 145.50075 10253 ft 298 kts 238°
2026-05-01 13:24 -37.41226 145.47974 10009 ft 296 kts 238°
2026-05-01 13:24 -37.42427 145.45886 9734 ft 294 kts 238°
2026-05-01 13:24 -37.43622 145.43810 9471 ft 292 kts 238°
2026-05-01 13:25 -37.46216 145.39903 8944 ft 294 kts 226°
2026-05-01 13:25 -37.47768 145.38204 8714 ft 297 kts 224°
2026-05-01 13:25 -37.49359 145.36515 8459 ft 300 kts 224°
2026-05-01 13:25 -37.50949 145.34814 8228 ft 300 kts 224°
2026-05-01 13:26 -37.52531 145.33100 7966 ft 299 kts 224°
2026-05-01 13:26 -37.54092 145.31390 7671 ft 294 kts 225°
2026-05-01 13:26 -37.55616 145.29700 7454 ft 290 kts 225°
2026-05-01 13:26 -37.57138 145.28025 7213 ft 291 kts 225°
2026-05-01 13:27 -37.58659 145.26341 6961 ft 291 kts 226°
2026-05-01 13:27 -37.60176 145.24652 6726 ft 291 kts 226°
2026-05-01 13:27 -37.63192 145.21285 6241 ft 292 kts 226°
2026-05-01 13:28 -37.66252 145.17868 5735 ft 294 kts 226°
2026-05-01 13:28 -37.67782 145.16156 5503 ft 294 kts 225°
2026-05-01 13:29 -37.70844 145.12731 5056 ft 290 kts 225°
2026-05-01 13:29 -37.73802 145.09422 4786 ft 277 kts 225°
2026-05-01 13:30 -37.79353 145.03195 4215 ft 257 kts 225°
2026-05-01 13:31 -37.81500 145.00016 3899 ft 218 kts 265°
2026-05-01 13:31 -37.82494 144.94312 3805 ft 224 kts 264°
2026-05-01 13:32 -37.83008 144.90592 3437 ft 208 kts 270°
2026-05-01 13:33 -37.81589 144.86615 2865 ft 166 kts 343°
2026-05-01 13:33 -37.79325 144.86119 2430 ft 167 kts 356°
2026-05-01 13:34 -37.77074 144.85690 1977 ft 157 kts 355°
2026-05-01 13:34 -37.74992 144.85297 1574 ft 145 kts 356°
2026-05-01 13:35 -37.73070 144.84937 1220 ft 139 kts 353°
2026-05-01 13:35 -37.72117 144.84761 1077 ft 137 kts 352°
2026-05-01 13:35 -37.70237 144.84408 664 ft 135 kts 352°
2026-05-01 13:36 -37.69626 144.84287 577 ft 135 kts 351°
2026-05-01 13:36 -37.68694 144.84115 412 ft 135 kts 352°
2026-05-01 13:36 -37.67125 144.83829 387 ft 53 kts 353°
2026-05-01 13:37 -37.66931 144.83870 393 ft 7 kts 19°
2026-05-01 13:37 -37.66885 144.83890 392 ft 7 kts 20°
2026-05-01 13:37 -37.66840 144.83912 394 ft 7 kts 20°
2026-05-01 13:37 -37.66827 144.83918 392 ft 0 kts 22°
2026-05-01 13:38 -37.66827 144.83919 392 ft 1 kts 22°
2026-05-01 13:38 -37.66801 144.83932 395 ft 2 kts 22°
2026-05-01 13:39 -37.66790 144.83938 394 ft 5 kts 23°
2026-05-01 13:39 -37.66759 144.83963 394 ft 5 kts 38°
2026-05-01 13:39 -37.66735 144.83999 397 ft 5 kts 59°
2026-05-01 13:39 -37.66728 144.84020 397 ft 0 kts 69°
2026-05-01 13:40 -37.66724 144.84036 397 ft 8 kts 76°
2026-05-01 13:40 -37.66721 144.84091 396 ft 1 kts 99°
2026-05-01 13:40 -37.66732 144.84124 397 ft 4 kts 118°
2026-05-01 13:40 -37.66747 144.84153 396 ft 5 kts 127°
2026-05-01 13:41 -37.66781 144.84183 396 ft 8 kts 157°
2026-05-01 13:41 -37.66845 144.84202 394 ft 11 kts 171°
2026-05-01 13:41 -37.66930 144.84218 392 ft 14 kts 172°
2026-05-01 13:41 -37.67004 144.84234 391 ft 7 kts 166°
2026-05-01 13:42 -37.67030 144.84270 391 ft 2 kts 98°
2026-05-01 13:42 -37.67028 144.84288 391 ft 2 kts 75°
2026-05-01 13:42 -37.67016 144.84300 391 ft 2 kts 41°
2026-05-01 13:42 -37.67004 144.84314 392 ft 2 kts 42°
2026-05-01 13:43 -37.66988 144.84333 392 ft 3 kts 43°
2026-05-01 13:43 -37.66971 144.84353 393 ft 2 kts 43°
2026-05-01 13:43 -37.66967 144.84358 393 ft 0 kts 43°